TimeEEST,TemperatureF,Dew PointF,Humidity,Sea Level PressureIn,VisibilityMPH,Wind Direction,Wind SpeedMPH,Gust SpeedMPH,PrecipitationIn,Events,Conditions,WindDirDegrees,DateUTC
12:50 AM,75.2,51.8,44,29.89,-9999.0,Calm,Calm,-,N/A,,Clear,0,2013-08-26 21:50:00
1:50 AM,75.2,53.6,47,29.86,-9999.0,Calm,Calm,-,N/A,,Clear,0,2013-08-26 22:50:00
2:50 AM,73.4,53.6,50,29.86,-9999.0,Calm,Calm,-,N/A,,Clear,0,2013-08-26 23:50:00
3:50 AM,73.4,55.4,53,29.86,-9999.0,Calm,Calm,-,N/A,,Clear,0,2013-08-27 00:50:00
4:50 AM,73.4,55.4,53,29.86,-9999.0,Calm,Calm,-,N/A,,Clear,0,2013-08-27 01:50:00
5:50 AM,73.4,57.2,57,29.86,-9999.0,Calm,Calm,-,N/A,,Clear,0,2013-08-27 02:50:00
6:20 AM,75.2,59.0,57,29.86,-9999.0,Calm,Calm,-,N/A,,Clear,0,2013-08-27 03:20:00
6:50 AM,71.6,57.2,60,29.86,-9999.0,Calm,Calm,-,N/A,,Clear,0,2013-08-27 03:50:00
7:20 AM,73.4,57.2,57,29.86,-9999.0,Calm,Calm,-,N/A,,Clear,0,2013-08-27 04:20:00
7:50 AM,75.2,57.2,53,29.86,-9999.0,Calm,Calm,-,N/A,,Clear,0,2013-08-27 04:50:00
8:20 AM,80.6,57.2,45,29.86,-9999.0,Calm,Calm,-,N/A,,Clear,0,2013-08-27 05:20:00
8:50 AM,82.4,57.2,42,29.86,-9999.0,Calm,Calm,-,N/A,,Clear,0,2013-08-27 05:50:00
9:20 AM,86.0,57.2,37,29.86,-9999.0,Calm,Calm,-,N/A,,Clear,0,2013-08-27 06:20:00
9:50 AM,86.0,55.4,35,29.89,-9999.0,Calm,Calm,-,N/A,,Clear,0,2013-08-27 06:50:00
10:20 AM,86.0,55.4,35,29.89,-9999.0,Variable,3.5,-,N/A,,Clear,0,2013-08-27 07:20:00
10:50 AM,87.8,60.8,40,29.89,-9999.0,SW,5.8,-,N/A,,Clear,220,2013-08-27 07:50:00
11:20 AM,89.6,60.8,38,29.89,-9999.0,South,6.9,-,N/A,,Clear,190,2013-08-27 08:20:00
11:50 AM,91.4,57.2,31,29.89,-9999.0,SSW,6.9,-,N/A,,Clear,200,2013-08-27 08:50:00
12:20 PM,91.4,57.2,31,29.86,-9999.0,South,8.1,-,N/A,,Clear,190,2013-08-27 09:20:00
12:50 PM,93.2,53.6,26,29.86,-9999.0,SSW,8.1,-,N/A,,Clear,200,2013-08-27 09:50:00
1:20 PM,95.0,53.6,25,29.86,-9999.0,SSW,9.2,-,N/A,,Clear,210,2013-08-27 10:20:00
1:50 PM,95.0,53.6,25,29.86,-9999.0,South,10.4,-,N/A,,Clear,190,2013-08-27 10:50:00
2:20 PM,95.0,55.4,26,29.83,-9999.0,South,6.9,-,N/A,,Clear,190,2013-08-27 11:20:00
2:50 PM,95.0,55.4,26,29.83,6.2,South,5.8,-,N/A,,Partly Cloudy,180,2013-08-27 11:50:00
3:20 PM,95.0,53.6,25,29.83,6.2,South,6.9,-,N/A,,Partly Cloudy,190,2013-08-27 12:20:00
3:50 PM,95.0,51.8,23,29.83,6.2,South,8.1,-,N/A,,Partly Cloudy,190,2013-08-27 12:50:00
4:20 PM,96.8,51.8,22,29.80,6.2,South,9.2,-,N/A,,Partly Cloudy,180,2013-08-27 13:20:00
4:50 PM,91.4,60.8,36,29.83,6.2,South,11.5,-,N/A,,Partly Cloudy,190,2013-08-27 13:50:00
5:20 PM,91.4,59.0,34,29.83,6.2,South,8.1,-,N/A,,Partly Cloudy,190,2013-08-27 14:20:00
5:50 PM,91.4,57.2,31,29.83,-9999.0,South,8.1,-,N/A,,Clear,190,2013-08-27 14:50:00
6:20 PM,89.6,60.8,38,29.83,-9999.0,South,9.2,-,N/A,,Clear,190,2013-08-27 15:20:00
6:50 PM,87.8,57.2,35,29.83,-9999.0,SSW,6.9,-,N/A,,Clear,200,2013-08-27 15:50:00
7:20 PM,86.0,57.2,37,29.83,-9999.0,SSW,4.6,-,N/A,,Clear,200,2013-08-27 16:20:00
7:50 PM,86.0,53.6,33,29.83,-9999.0,SSW,4.6,-,N/A,,Clear,200,2013-08-27 16:50:00
8:20 PM,84.2,53.6,35,29.83,-9999.0,Calm,Calm,-,N/A,,Clear,0,2013-08-27 17:20:00
8:50 PM,82.4,55.4,39,29.83,-9999.0,Calm,Calm,-,N/A,,Clear,0,2013-08-27 17:50:00
9:20 PM,82.4,55.4,39,29.83,-9999.0,Calm,Calm,-,N/A,,Clear,0,2013-08-27 18:20:00
9:50 PM,82.4,57.2,42,29.86,-9999.0,Calm,Calm,-,N/A,,Clear,0,2013-08-27 18:50:00
10:20 PM,82.4,57.2,42,29.86,-9999.0,Calm,Calm,-,N/A,,Clear,0,2013-08-27 19:20:00
10:50 PM,80.6,55.4,42,29.86,-9999.0,Calm,Calm,-,N/A,,Clear,0,2013-08-27 19:50:00
11:20 PM,78.8,53.6,42,29.86,-9999.0,Calm,Calm,-,N/A,,Clear,0,2013-08-27 20:20:00
11:50 PM,78.8,53.6,42,29.83,-9999.0,Calm,Calm,-,N/A,,Clear,0,2013-08-27 20:50:00